Location: Deerlick Astronomy Village
(33.5614°N, 82.7631°W)
Time: 04:10:04
(UTC-05:00)

Iridium 66 - Visible Passes

Search period start: 06 February 2016 00:00
Search period end: 16 February 2016 00:00
Orbit: 776 x 779 km, 86.4° (Epoch: 05 February)

Date Brightness Start Highest point End Pass type
(mag) Time Alt. Az. Time Alt. Az. Time Alt. Az.
06 Feb 6.9 20:09:22 10° S 20:12:28 37° S 20:12:28 37° S visible
07 Feb 8.8 06:44:57 10° NE 06:48:25 18° E 06:51:53 10° ESE visible
07 Feb 6.3 19:36:18 10° SSE 19:41:08 41° E 19:42:20 36° NE visible
07 Feb 8.5 21:18:32 10° WSW 21:21:59 18° W 21:23:16 16° WNW visible
08 Feb 7.1 19:03:58 10° SE 19:07:50 21° E 19:11:42 10° NE visible
08 Feb 7.5 20:43:34 10° SSW 20:48:16 34° W 20:52:59 10° NNW visible
09 Feb 7.8 18:33:35 10° E 18:34:38 11° ENE 18:35:42 10° ENE visible
09 Feb 6.3 20:09:29 10° S 20:14:39 67° W 20:19:51 10° N visible
10 Feb 8.5 06:44:18 10° NNE 06:48:40 26° E 06:52:59 10° SE visible
10 Feb 5.9 19:36:02 10° SSE 19:41:10 62° E 19:46:19 10° N visible
10 Feb 9.0 21:20:31 10° W 21:22:17 12° WNW 21:24:03 10° WNW visible
11 Feb 9.1 06:12:19 10° NE 06:14:53 14° ENE 06:17:25 10° ESE visible
11 Feb 6.7 19:03:14 10° SSE 19:07:47 32° E 19:12:21 10° NNE visible
11 Feb 8.2 20:44:23 10° SW 20:48:28 23° W 20:52:34 10° NNW visible
12 Feb 7.4 18:31:21 10° ESE 18:34:31 17° E 18:37:42 10° NE visible
12 Feb 7.1 20:09:50 10° SSW 20:14:47 44° W 20:19:46 10° NNW visible
13 Feb 7.7 06:43:59 10° NNE 06:48:51 39° E 06:53:41 10° SSE visible
13 Feb 6.0 19:36:01 10° S 19:41:13 87° W 19:46:28 10° N visible
14 Feb 8.8 06:11:19 10° NNE 06:15:08 20° E 06:18:58 10° SE visible
14 Feb 6.2 19:02:48 10° SSE 19:07:46 47° E 19:12:46 10° NNE visible
14 Feb 8.8 20:45:42 10° WSW 20:48:43 15° WNW 20:51:45 10° NW visible
15 Feb 7.9 20:10:27 10° SW 20:14:57 30° W 20:19:30 10° NNW visible
